This is the latest recevied weather packets stored in our database for station/object DX2OHR-2. If no packets are shown the sender has not sent any weather packets the latest 10 day(s).
| Time | Temp. | Humidity | Pressure | Rain* | Wind** | Luminosity | Snow |
|---|---|---|---|---|---|---|---|
| 1787505303 | 15.56° C | 58% | 1019.8 hPa | 0 mm | - | 30 W/m² | - |
| 1787505006 | 15.56° C | 56% | 1019.9 hPa | 0 mm | - | 33 W/m² | - |
| 1787504706 | 15.56° C | 56% | 1019.8 hPa | 0 mm | - | 39 W/m² | - |
| 1787504406 | 16.11° C | 55% | 1019.7 hPa | 0 mm | - | 41 W/m² | - |
| 1787504105 | 16.67° C | 55% | 1019.8 hPa | 0 mm | - | 47 W/m² | - |
| 1787503806 | 16.67° C | 54% | 1019.7 hPa | 0 mm | - | 85 W/m² | - |
| 1787503506 | 16.67° C | 54% | 1019.9 hPa | 0 mm | - | 103 W/m² | - |
| 1787503206 | 16.67° C | 55% | 1019.6 hPa | 0 mm | - | 83 W/m² | - |
| 1787502904 | 16.67° C | 55% | 1019.8 hPa | 0 mm | - | 129 W/m² | - |
| 1787502603 | 16.67° C | 56% | 1019.9 hPa | 0 mm | - | 115 W/m² | - |
| 1787502307 | 16.11° C | 59% | 1019.9 hPa | 0 mm | - | 74 W/m² | - |
| 1787502004 | 16.67° C | 57% | 1019.9 hPa | 0 mm | - | 63 W/m² | - |
| 1787501704 | 16.67° C | 56% | 1019.9 hPa | 0 mm | - | 79 W/m² | - |
| 1787501406 | 17.22° C | 55% | 1019.8 hPa | 0 mm | - | 94 W/m² | - |
| 1787501108 | 16.67° C | 55% | 1019.9 hPa | 0 mm | - | 93 W/m² | - |
| 1787500806 | 16.67° C | 56% | 1019.7 hPa | 0 mm | - | 95 W/m² | - |
| 1787500504 | 16.67° C | 55% | 1019.8 hPa | 0 mm | - | 102 W/m² | - |
| 1787500204 | 17.22° C | 56% | 1019.8 hPa | 0 mm | - | 116 W/m² | - |
| 1787499904 | 16.67° C | 57% | 1019.8 hPa | 0 mm | - | 121 W/m² | - |
| 1787499606 | 16.11° C | 58% | 1019.7 hPa | 0 mm | - | 95 W/m² | - |
| 1787499309 | 16.67° C | 58% | 1019.7 hPa | 0 mm | - | 114 W/m² | - |
| 1787499007 | 16.67° C | 58% | 1019.8 hPa | 0 mm | - | 116 W/m² | - |
| 1787498706 | 16.67° C | 58% | 1019.7 hPa | 0 mm | - | 102 W/m² | - |
| 1787498406 | 16.67° C | 58% | 1019.8 hPa | 0 mm | - | 106 W/m² | - |
| 1787498106 | 16.67° C | 58% | 1019.7 hPa | 0 mm | - | 174 W/m² | - |
* Rain latest hour (hover to see other rain measurements)
** Current wind speed in m/s (hover to see current wind gust speed)